Whiting Fld NAS, FL

2:42 AM CDT on March 27, 2017 (GMT -0500)
Whiting Field Naval Air Station (North)

Weather History for KNSE - August, 2013

Change the Weather History Date:

Tuesday, August 13, 2013

  Actual Average Record
Temperature  
Mean Temperature 80 °F -  
Max Temperature 89 °F 87 °F 95 °F (1999)
Min Temperature 73 °F 70 °F 69 °F (2002)
Cooling Degree Days 16    
Growing Degree Days 30 (Base 50)    
Moisture  
Dew Point 72 °F    
Average Humidity 80    
Maximum Humidity 91    
Minimum Humidity 58    
Precipitation  
Precipitation 0.05 in - - ()
Sea Level Pressure  
Sea Level Pressure 29.97 in    
Wind  
Wind Speed 4 mph (WSW)    
Max Wind Speed 13 mph    
Max Gust Speed 18 mph    
Visibility 9 miles    
Events Rain , Thunderstorm    
Averages and records for this station are not official NWS values.
T = Trace of Precipitation, MM = Missing Value Source: NWS Daily Summary

Daily Weather History Graph

Daily Weather History Graph

Search for Another Location

Airport or City:

Trip Planner

Search our weather history database for the weather conditions in past years. The results will help you decide how hot, cold, wet, or windy it might be!

Date:

Astronomy

Aug. 13, 2013 Rise Set
Actual Time 6:13 AM CDT 7:31 PM CDT
Civil Twilight 5:47 AM CDT 7:57 PM CDT
Nautical Twilight 5:17 AM CDT 8:27 PM CDT
Astronomical Twilight 4:46 AM CDT 8:58 PM CDT
Moon 12:35 PM CDT (8/13) 11:39 PM CDT (8/13)
Length of Visible Light 14h 09m
Length of Day
13h 18m
Waxing Crescent, 42% of the Moon is Illuminated
Aug 13
Waxing Crescent
Aug 14
First Quarter
Aug 20
Full
Aug 28
Last Quarter
Sep 5
New

Hourly Weather History & Observations

Time (CDT) Temp. Heat Index Dew Point Humidity Pressure Visibility Wind Dir Wind Speed Gust Speed Precip Events Conditions
12:56 AM 73.9 °F - 71.1 °F 91% 29.99 in 10.0 mi Calm Calm - N/A   Partly Cloudy
1:56 AM 73.9 °F - 71.1 °F 91% 29.99 in 10.0 mi Calm Calm - 0.00 in   Clear
2:56 AM 73.9 °F - 71.1 °F 91% 29.97 in 10.0 mi Calm Calm - N/A   Partly Cloudy
3:43 AM 75.2 °F - 71.6 °F 89% 30.01 in 10.0 mi Calm Calm - N/A   Mostly Cloudy
3:56 AM 75.9 °F - 72.0 °F 87% 29.97 in 9.0 mi WSW 3.5 mph - N/A   Mostly Cloudy
4:31 AM 75.2 °F - 71.6 °F 89% 30.01 in 10.0 mi SW 3.5 mph - N/A   Scattered Clouds
4:56 AM 75.9 °F - 73.0 °F 91% 29.96 in 9.0 mi WSW 3.5 mph - N/A   Clear
5:56 AM 75.0 °F - 72.0 °F 90% 29.97 in 8.0 mi Calm Calm - N/A   Mostly Cloudy
6:56 AM 77.0 °F - 73.9 °F 90% 29.98 in 7.0 mi Calm Calm - N/A   Mostly Cloudy
7:56 AM 80.1 °F 85.4 °F 75.9 °F 87% 29.99 in 8.0 mi WNW 4.6 mph - N/A   Mostly Cloudy
8:56 AM 84.0 °F 92.6 °F 75.9 °F 76% 29.99 in 10.0 mi NW 9.2 mph - N/A   Mostly Cloudy
9:56 AM 87.1 °F 96.3 °F 75.0 °F 67% 29.99 in 10.0 mi WNW 11.5 mph - N/A   Mostly Cloudy
10:56 AM 88.0 °F 97.5 °F 75.0 °F 65% 30.01 in 10.0 mi NW 8.1 mph - N/A   Mostly Cloudy
11:26 AM 82.4 °F 87.2 °F 71.6 °F 70% 30.05 in 10.0 mi SSW 12.7 mph 18.4 mph N/A Thunderstorm Mostly Cloudy
11:37 AM 80.6 °F 84.6 °F 71.6 °F 74% 30.04 in 10.0 mi SSW 11.5 mph - N/A Thunderstorm Thunderstorm
11:43 AM 80.6 °F 84.6 °F 71.6 °F 74% 30.05 in 10.0 mi SSW 6.9 mph - 0.00 in Rain , Thunderstorm Light Thunderstorms and Rain
11:56 AM 79.0 °F - 73.0 °F 82% 29.99 in 3.0 mi South 9.2 mph - 0.05 in Rain , Thunderstorm Heavy Thunderstorms and Rain
12:11 PM 80.6 °F 85.4 °F 73.4 °F 79% 30.03 in 10.0 mi SSW 8.1 mph - 0.00 in Thunderstorm Thunderstorm
12:22 PM 80.6 °F 85.4 °F 73.4 °F 79% 30.03 in 10.0 mi South 8.1 mph - 0.00 in   Mostly Cloudy
12:56 PM 84.0 °F 92.6 °F 75.9 °F 76% 29.98 in 10.0 mi South 8.1 mph - 0.00 in   Mostly Cloudy
1:56 PM 88.0 °F 96.5 °F 73.9 °F 63% 29.95 in 10.0 mi SSW 11.5 mph - N/A   Mostly Cloudy
2:56 PM 88.0 °F 95.6 °F 73.0 °F 61% 29.92 in 10.0 mi Variable 4.6 mph - N/A   Mostly Cloudy
3:11 PM 87.8 °F 93.8 °F 71.6 °F 58% 29.97 in 10.0 mi WSW 4.6 mph - N/A Thunderstorm Thunderstorm
3:36 PM 80.6 °F 84.6 °F 71.6 °F 74% 29.97 in 2.0 mi NNE 5.8 mph - 0.00 in Rain , Thunderstorm Light Thunderstorms and Rain
3:46 PM 78.8 °F - 71.6 °F 78% 29.97 in 9.0 mi North 5.8 mph - 0.00 in   Mostly Cloudy
3:56 PM 78.1 °F - 71.1 °F 79% 29.93 in 10.0 mi NNW 8.1 mph - 0.00 in   Mostly Cloudy
4:56 PM 79.0 °F - 73.0 °F 82% 29.92 in 10.0 mi NW 5.8 mph - N/A   Mostly Cloudy
5:56 PM 80.1 °F 84.2 °F 73.0 °F 79% 29.93 in 10.0 mi West 3.5 mph - N/A   Mostly Cloudy
6:56 PM 78.1 °F - 71.1 °F 79% 29.94 in 10.0 mi West 4.6 mph - N/A   Mostly Cloudy
7:56 PM 75.9 °F - 71.1 °F 85% 29.92 in 10.0 mi WNW 3.5 mph - N/A   Overcast
8:56 PM 75.0 °F - 71.1 °F 87% 29.91 in 10.0 mi NW 3.5 mph - N/A   Overcast
9:56 PM 75.0 °F - 70.0 °F 84% 29.92 in 10.0 mi Calm Calm - N/A   Overcast
10:56 PM 75.0 °F - 71.1 °F 87% 29.93 in 10.0 mi SW 3.5 mph - N/A   Overcast
11:56 PM 73.9 °F - 70.0 °F 87% 29.94 in 10.0 mi WSW 3.5 mph - N/A   Mostly Cloudy